Location: Sternwarte_Laufen
(47.9344°N, 12.9346°E)
Time: 03:13:18
(UTC+02:00)

ISS - Pass Details

Date: 06 July 2025
Orbit: 413 x 417 km, 51.6° (Epoch: 12 July)

Event Time Altitude Azimuth Distance (km) Brightness Sun altitude
Rises 04:27:22 0° 293° (WNW) 2,361 -0.2 -7.1°
Reaches altitude 10° 04:29:28 10° 292° (WNW) 1,496 -1.2 -6.8°
Maximum altitude 04:32:49 78° 206° (SSW) 431 -3.8 -6.4°
Drops below altitude 10° 04:36:10 10° 120° (ESE) 1,492 -0.7 -6.0°
Sets 04:38:15 0° 119° (ESE) 2,353 0.3 -5.8°
